Minneapolis, MN

4:47 PM CST on February 21, 2017 (GMT -0600)
Crystal

Weather History for KMIC - May, 2014

Change the Weather History Date:

Monday, May 19, 2014

  Actual Average Record
Temperature  
Mean Temperature 56 °F -  
Max Temperature 60 °F 65 °F 86 °F (2007)
Min Temperature 53 °F 44 °F 30 °F (2000)
Degree Days  
Heating Degree Days 8    
Growing Degree Days 6 (Base 50)    
Moisture  
Dew Point 48 °F    
Average Humidity 82    
Maximum Humidity 90    
Minimum Humidity 42    
Precipitation  
Precipitation 0.85 in - - ()
Sea Level Pressure  
Sea Level Pressure 29.83 in    
Wind  
Wind Speed 13 mph (SE)    
Max Wind Speed 20 mph    
Max Gust Speed 26 mph    
Visibility 4 miles    
Events Rain , Thunderstorm    
Averages and records for this station are not official NWS values.
T = Trace of Precipitation, MM = Missing Value Source: NWS Daily Summary

Daily Weather History Graph

Daily Weather History Graph

Search for Another Location

Airport or City:

Trip Planner

Search our weather history database for the weather conditions in past years. The results will help you decide how hot, cold, wet, or windy it might be!

Date:

Astronomy

May. 19, 2014 Rise Set
Actual Time 5:39 AM CDT 8:40 PM CDT
Civil Twilight 5:05 AM CDT 9:15 PM CDT
Nautical Twilight 4:20 AM CDT 10:00 PM CDT
Astronomical Twilight 3:27 AM CDT 10:53 PM CDT
Moon 12:24 AM CDT (5/19) 10:42 AM CDT (5/19)
Length of Visible Light 16h 10m
Length of Day
15h 00m
Waning Gibbous, 71% of the Moon is Illuminated
May 19
Waning Gibbous
May 21
Last Quarter
May 28
New
Jun 5
First Quarter
Jun 12
Full

Hourly Weather History & Observations

Time (CDT) Temp. Dew Point Humidity Pressure Visibility Wind Dir Wind Speed Gust Speed Precip Events Conditions
12:53 AM 60.1 °F 37.0 °F 42% 29.99 in 10.0 mi SSE 8.1 mph - N/A   Partly Cloudy
1:53 AM 60.1 °F 37.0 °F 42% 29.99 in 10.0 mi SSE 11.5 mph - N/A   Clear
2:53 AM 60.1 °F 39.0 °F 46% 29.98 in 10.0 mi SSE 11.5 mph - N/A   Overcast
3:53 AM 60.1 °F 39.9 °F 47% 29.96 in 10.0 mi SSE 11.5 mph - N/A   Overcast
4:53 AM 59.0 °F 41.0 °F 51% 29.94 in 10.0 mi SSE 15.0 mph - N/A   Overcast
5:53 AM 59.0 °F 41.0 °F 51% 29.93 in 10.0 mi SSE 18.4 mph 26.5 mph N/A   Overcast
6:53 AM 59.0 °F 41.0 °F 51% 29.92 in 10.0 mi SE 19.6 mph 26.5 mph N/A   Mostly Cloudy
9:53 AM 57.0 °F 44.1 °F 62% 29.86 in 10.0 mi ESE 12.7 mph 21.9 mph 0.00 in Rain Light Rain
10:19 AM 55.9 °F 45.0 °F 67% 29.87 in 4.0 mi SSE 13.8 mph 25.3 mph 0.00 in Rain , Thunderstorm Light Rain
10:27 AM 54.0 °F 46.9 °F 77% 29.88 in 1.8 mi SSE 10.4 mph 24.2 mph 0.04 in Rain , Thunderstorm Rain
10:30 AM 54.0 °F 46.9 °F 77% 29.88 in 1.5 mi SE 10.4 mph 24.2 mph 0.06 in Rain , Thunderstorm Heavy Thunderstorms and Rain
10:45 AM 53.1 °F 48.0 °F 83% 29.87 in 1.5 mi ESE 9.2 mph - 0.16 in Rain , Thunderstorm Thunderstorms and Rain
10:53 AM 53.1 °F 48.0 °F 83% 29.86 in 1.8 mi ESE 9.2 mph - 0.20 in Rain , Thunderstorm Rain
11:11 AM 53.1 °F 48.9 °F 86% 29.81 in 3.0 mi East 16.1 mph 21.9 mph 0.04 in Rain , Thunderstorm Light Rain
11:18 AM 54.0 °F 50.0 °F 86% 29.80 in 4.0 mi East 12.7 mph 21.9 mph 0.04 in Rain Light Rain
11:29 AM 54.0 °F 48.9 °F 83% 29.82 in 7.0 mi SE 11.5 mph 23.0 mph 0.04 in Thunderstorm Overcast
11:53 AM 54.0 °F 48.9 °F 83% 29.86 in 8.0 mi SE 8.1 mph 21.9 mph 0.04 in Rain , Thunderstorm Light Rain
12:03 PM 54.0 °F 48.9 °F 83% 29.92 in 5.0 mi NW 15.0 mph - 0.02 in Rain , Thunderstorm Light Thunderstorms and Rain
12:07 PM 54.0 °F 50.0 °F 86% 29.90 in 1.5 mi East 8.1 mph - 0.15 in Rain , Thunderstorm Heavy Thunderstorms and Rain
12:35 PM 53.1 °F 50.0 °F 89% 29.87 in 2.0 mi SE 13.8 mph 17.3 mph 0.89 in Rain , Thunderstorm Rain
12:51 PM 53.6 °F 50.0 °F 88% 29.88 in 1.5 mi SE 10.4 mph - 0.97 in Rain , Thunderstorm Heavy Rain
1:09 PM 53.1 °F 50.0 °F 89% 29.87 in 2.0 mi SE 15.0 mph 20.7 mph 0.07 in Rain , Thunderstorm Rain
1:25 PM 53.1 °F 50.0 °F 89% 29.84 in 2.0 mi SE 13.8 mph 20.7 mph 0.14 in Rain , Thunderstorm Thunderstorms and Rain
1:37 PM 53.1 °F 50.0 °F 89% 29.84 in 2.0 mi SE 17.3 mph 23.0 mph 0.19 in Rain , Thunderstorm Rain
1:44 PM 53.1 °F 50.0 °F 89% 29.83 in 2.0 mi SE 15.0 mph 24.2 mph 0.20 in Rain , Thunderstorm Light Thunderstorms and Rain
1:53 PM 53.1 °F 50.0 °F 89% 29.83 in 2.0 mi SE 19.6 mph 24.2 mph 0.27 in Rain , Thunderstorm Heavy Thunderstorms and Rain
2:00 PM 53.1 °F 50.0 °F 89% 29.83 in 3.0 mi SE 16.1 mph 25.3 mph 0.00 in Rain , Thunderstorm Light Thunderstorms and Rain
2:12 PM 53.1 °F 50.0 °F 89% 29.82 in 3.0 mi SE 13.8 mph 25.3 mph 0.00 in Rain Light Rain
2:40 PM 53.1 °F 50.0 °F 89% 29.81 in 3.0 mi SE 17.3 mph 24.2 mph 0.04 in Rain , Thunderstorm Light Rain
2:53 PM 53.1 °F 50.0 °F 89% 29.82 in 3.0 mi SE 15.0 mph 24.2 mph 0.05 in Rain , Thunderstorm Light Thunderstorms and Rain
3:06 PM 53.1 °F 50.0 °F 89% 29.82 in 1.8 mi SE 12.7 mph 20.7 mph 0.05 in Rain , Thunderstorm Thunderstorms and Rain
3:14 PM 53.1 °F 50.0 °F 89% 29.81 in 2.0 mi SE 15.0 mph - 0.08 in Rain , Thunderstorm Thunderstorms and Rain
3:25 PM 53.1 °F 50.0 °F 89% 29.81 in 2.5 mi SE 11.5 mph 25.3 mph 0.08 in Rain , Thunderstorm Light Thunderstorms and Rain
3:34 PM 53.1 °F 50.0 °F 89% 29.81 in 2.0 mi SE 10.4 mph 18.4 mph 0.09 in Rain , Thunderstorm Light Thunderstorms and Rain
3:36 PM 53.1 °F 50.0 °F 89% 29.80 in 1.8 mi SE 12.7 mph 18.4 mph 0.10 in Rain , Thunderstorm Light Thunderstorms and Rain
3:39 PM 53.1 °F 50.0 °F 89% 29.80 in 1.8 mi SE 12.7 mph 18.4 mph 0.11 in Rain , Thunderstorm Light Rain
3:46 PM 53.1 °F 50.0 °F 89% 29.79 in 2.5 mi SE 13.8 mph 21.9 mph 0.11 in Rain , Thunderstorm Light Rain
3:53 PM 53.1 °F 50.0 °F 89% 29.79 in 2.5 mi SE 16.1 mph 23.0 mph 0.12 in Rain , Thunderstorm Light Rain
4:04 PM 53.1 °F 50.0 °F 89% 29.79 in 2.5 mi SE 16.1 mph 23.0 mph 0.01 in Rain , Thunderstorm Light Thunderstorms and Rain
4:16 PM 53.1 °F 50.0 °F 89% 29.79 in 3.0 mi ESE 9.2 mph 18.4 mph 0.03 in Rain , Thunderstorm Light Thunderstorms and Rain
4:32 PM 53.1 °F 50.0 °F 89% 29.79 in 1.8 mi SE 16.1 mph 24.2 mph 0.04 in Rain , Thunderstorm Light Thunderstorms and Rain
4:53 PM 53.1 °F 50.0 °F 89% 29.78 in 1.2 mi SE 17.3 mph - 0.06 in Rain , Thunderstorm Light Thunderstorms and Rain
5:09 PM 53.1 °F 50.0 °F 89% 29.78 in 2.0 mi SE 17.3 mph 25.3 mph 0.00 in Rain , Thunderstorm Light Thunderstorms and Rain
5:21 PM 53.1 °F 50.0 °F 89% 29.78 in 2.5 mi SE 15.0 mph - 0.01 in Rain , Thunderstorm Light Rain
5:53 PM 53.1 °F 50.0 °F 89% 29.78 in 2.5 mi SE 11.5 mph 20.7 mph 0.01 in   Overcast
6:08 PM 53.1 °F 50.0 °F 89% 29.77 in 3.0 mi SE 12.7 mph 19.6 mph N/A   Overcast
6:46 PM 54.0 °F 50.0 °F 86% 29.77 in 5.0 mi SE 12.7 mph 19.6 mph N/A   Overcast
6:53 PM 54.0 °F 50.0 °F 86% 29.78 in 5.0 mi SE 11.5 mph - N/A   Overcast
7:20 PM 54.0 °F 50.0 °F 86% 29.78 in 5.0 mi ESE 10.4 mph - 0.00 in Rain Light Rain
7:53 PM 54.0 °F 51.1 °F 90% 29.78 in 3.0 mi SE 12.7 mph - 0.00 in Rain Light Rain
8:40 PM 55.0 °F 51.1 °F 86% 29.78 in 4.0 mi SSE 15.0 mph 20.7 mph 0.01 in Rain Light Rain
8:53 PM 54.0 °F 51.1 °F 90% 29.79 in 4.0 mi SE 11.5 mph 19.6 mph 0.01 in Rain Light Rain
9:53 PM 55.0 °F 51.1 °F 86% 29.80 in 4.0 mi SSE 15.0 mph - 0.01 in   Overcast
10:31 PM 55.0 °F 52.0 °F 89% 29.76 in 3.0 mi SE 13.8 mph 23.0 mph 0.08 in Rain Rain
10:53 PM 55.0 °F 51.1 °F 86% 29.77 in 5.0 mi SSE 10.4 mph 19.6 mph 0.08 in   Mostly Cloudy
11:28 PM 55.0 °F 51.1 °F 86% 29.73 in 5.0 mi SE 10.4 mph - N/A   Mostly Cloudy
11:51 PM 55.4 °F 51.8 °F 88% 29.76 in 5.0 mi SSE 8.1 mph - N/A   Mostly Cloudy
11:53 PM 55.0 °F 51.1 °F 86% 29.77 in 5.0 mi SE 5.8 mph - N/A   Mostly Cloudy